Cody, WY

1:57 PM MST on January 20, 2017 (GMT -0700)
Yellowstone Regional

Weather History for KCOD - October, 2011

Change the Weather History Date:

Tuesday, October 11, 2011

  Actual Average Record
Temperature  
Mean Temperature 56 °F -  
Max Temperature 57 °F 65 °F 87 °F (1936)
Min Temperature 55 °F 37 °F 17 °F (2016)
Degree Days  
Heating Degree Days 9    
Growing Degree Days 6 (Base 50)    
Moisture  
Dew Point 33 °F    
Average Humidity 41    
Maximum Humidity 44    
Minimum Humidity 38    
Precipitation  
Precipitation 0.00 in - - ()
Sea Level Pressure  
Sea Level Pressure 29.77 in    
Wind  
Wind Speed 10 mph (SW)    
Max Wind Speed 22 mph    
Max Gust Speed 32 mph    
Visibility 10 miles    
Events      
Averages and records for this station are not official NWS values.
T = Trace of Precipitation, MM = Missing Value Source: NWS Daily Summary

Daily Weather History Graph

Daily Weather History Graph

Search for Another Location

Airport or City:

Trip Planner

Search our weather history database for the weather conditions in past years. The results will help you decide how hot, cold, wet, or windy it might be!

Date:

Astronomy

Oct. 11, 2011 Rise Set
Actual Time 7:25 AM MDT 6:38 PM MDT
Civil Twilight 6:56 AM MDT 7:08 PM MDT
Nautical Twilight 6:23 AM MDT 7:41 PM MDT
Astronomical Twilight 5:49 AM MDT 8:15 PM MDT
Moon 6:09 PM MDT (10/11) 7:08 AM MDT (10/11)
Length of Visible Light 12h 11m
Length of Day
11h 13m
Full, 100% of the Moon is Illuminated
Oct 11
Full
Oct 11
Full
Oct 19
Last Quarter
Oct 26
New
Nov 2
First Quarter

Hourly Weather History & Observations

Time (MDT) Temp. Windchill Dew Point Humidity Pressure Visibility Wind Dir Wind Speed Gust Speed Precip Events Conditions
12:15 AM - - - N/A% 29.75 in 10.0 mi South 6.9 mph - N/A   Overcast
12:35 AM - - - N/A% 29.75 in 10.0 mi SSE 6.9 mph - N/A   Overcast
12:55 AM - - - N/A% 29.75 in 10.0 mi South 6.9 mph - N/A   Overcast
1:15 AM - - - N/A% 29.75 in 10.0 mi SSW 3.5 mph - N/A   Overcast
1:35 AM - - - N/A% 29.75 in 10.0 mi SW 9.2 mph 16.1 mph N/A   Overcast
1:55 AM - - - N/A% 29.75 in 10.0 mi SW 10.4 mph 17.3 mph N/A   Overcast
2:35 AM - - - N/A% 29.74 in 10.0 mi South 10.4 mph - N/A   Scattered Clouds
2:55 AM - - - N/A% 29.75 in 10.0 mi Calm Calm - N/A   Mostly Cloudy
3:15 AM - - - N/A% 29.75 in 10.0 mi WNW 3.5 mph - N/A   Overcast
3:35 AM - - - N/A% 29.74 in 10.0 mi WNW 5.8 mph - N/A   Mostly Cloudy
4:15 AM - - - N/A% 29.73 in 10.0 mi West 8.1 mph - N/A   Scattered Clouds
4:35 AM - - - N/A% 29.74 in 10.0 mi WSW 12.7 mph 18.4 mph N/A   Scattered Clouds
4:55 AM - - - N/A% 29.73 in 10.0 mi SW 17.3 mph 28.8 mph N/A   Partly Cloudy
5:15 AM - - - N/A% 29.74 in 10.0 mi SW 12.7 mph 26.5 mph N/A   Clear
5:35 AM - - - N/A% 29.73 in 10.0 mi SW 11.5 mph 25.3 mph N/A   Clear
5:55 AM - - - N/A% 29.74 in 10.0 mi WSW 8.1 mph - N/A   Clear
6:15 AM - - - N/A% 29.74 in 10.0 mi WSW 13.8 mph 21.9 mph N/A   Clear
6:35 AM - - - N/A% 29.75 in 10.0 mi WSW 12.7 mph 19.6 mph N/A   Clear
6:55 AM - - - N/A% 29.75 in 10.0 mi WSW 9.2 mph - N/A   Clear
7:15 AM - - - N/A% 29.75 in 10.0 mi SW 8.1 mph - N/A   Clear
7:35 AM - - - N/A% 29.75 in 10.0 mi SW 11.5 mph 17.3 mph N/A   Clear
7:55 AM - - - N/A% 29.75 in 10.0 mi WSW 13.8 mph 19.6 mph N/A   Clear
8:15 AM - - - N/A% 29.74 in 10.0 mi WSW 10.4 mph - N/A   Clear
8:55 AM - - - N/A% 29.74 in 10.0 mi SW 11.5 mph 18.4 mph N/A   Clear
9:15 AM - - - N/A% 29.74 in 10.0 mi SSW 9.2 mph - N/A   Clear
9:35 AM - - - N/A% 29.74 in 10.0 mi South 12.7 mph - N/A   Clear
9:55 AM - - - N/A% 29.75 in 10.0 mi SSE 12.7 mph 18.4 mph N/A   Clear
10:15 AM - - - N/A% 29.75 in 10.0 mi SSE 10.4 mph - N/A   Mostly Cloudy
10:35 AM - - - N/A% 29.74 in 10.0 mi SE 11.5 mph - N/A   Overcast
10:55 AM 55.4 °F - 32.0 °F 41% 29.76 in 10.0 mi SW 8.1 mph - N/A   Overcast
11:15 AM 57.2 °F - 33.8 °F 41% 29.74 in 10.0 mi WSW 9.2 mph - N/A   Mostly Cloudy
11:35 AM 57.2 °F - 33.8 °F 41% 29.75 in 10.0 mi WSW 11.5 mph - N/A   Scattered Clouds
11:55 AM 57.2 °F - 32.0 °F 38% 29.75 in 10.0 mi SW 5.8 mph - N/A   Mostly Cloudy
12:15 PM 55.4 °F - 32.0 °F 41% 29.76 in 10.0 mi West 10.4 mph - N/A   Overcast
12:35 PM 55.4 °F - 33.8 °F 44% 29.76 in 10.0 mi SW 10.4 mph 16.1 mph N/A   Overcast
12:55 PM 57.2 °F - 33.8 °F 41% 29.76 in 10.0 mi SW 12.7 mph 23.0 mph N/A   Overcast
1:15 PM 55.4 °F - 33.8 °F 44% 29.75 in 10.0 mi SW 16.1 mph 26.5 mph N/A   Mostly Cloudy
1:35 PM 55.4 °F - 32.0 °F 41% 29.75 in 10.0 mi SW 13.8 mph 28.8 mph N/A   Scattered Clouds
2:15 PM - - - N/A% 29.75 in 10.0 mi SW 16.1 mph 27.6 mph N/A   Mostly Cloudy
2:35 PM - - - N/A% 29.76 in 10.0 mi SW 21.9 mph 32.2 mph N/A   Scattered Clouds
2:55 PM - - - N/A% 29.76 in 10.0 mi SSW 15.0 mph 24.2 mph N/A   Clear
3:15 PM - - - N/A% 29.77 in 10.0 mi SW 13.8 mph 26.5 mph N/A   Scattered Clouds
3:55 PM - - - N/A% 29.78 in 10.0 mi SW 16.1 mph 27.6 mph N/A   Mostly Cloudy
4:15 PM - - - N/A% 29.79 in 10.0 mi SW 18.4 mph 28.8 mph N/A   Mostly Cloudy
4:55 PM - - - N/A% 29.79 in 10.0 mi SW 13.8 mph 18.4 mph N/A   Scattered Clouds
5:15 PM - - - N/A% 29.80 in 10.0 mi SW 13.8 mph 24.2 mph N/A   Scattered Clouds
5:35 PM - - - N/A% 29.81 in 10.0 mi SSW 18.4 mph 24.2 mph N/A   Mostly Cloudy
5:55 PM - - - N/A% 29.81 in 10.0 mi SSW 13.8 mph 23.0 mph N/A   Overcast
6:15 PM - - - N/A% 29.84 in 10.0 mi SW 8.1 mph 19.6 mph N/A   Overcast
6:35 PM - - - N/A% 29.85 in 10.0 mi WSW 8.1 mph - N/A   Overcast
6:55 PM - - - N/A% 29.86 in 10.0 mi West 8.1 mph - N/A   Overcast
7:15 PM - - - N/A% 29.86 in 10.0 mi SW 10.4 mph 26.5 mph N/A   Overcast
7:35 PM - - - N/A% 29.87 in 10.0 mi South 13.8 mph - N/A   Overcast
7:55 PM - - - N/A% 29.87 in 10.0 mi South 11.5 mph - N/A   Overcast
8:15 PM - - - N/A% 29.88 in 10.0 mi SSW 9.2 mph - N/A   Overcast
8:35 PM - - - N/A% 29.89 in 10.0 mi SSW 9.2 mph 17.3 mph N/A   Overcast
8:55 PM - - - N/A% 29.90 in 10.0 mi SW 11.5 mph 19.6 mph N/A   Scattered Clouds
9:15 PM - - - N/A% 29.90 in 10.0 mi SW 11.5 mph - N/A   Mostly Cloudy
9:35 PM - - - N/A% 29.92 in 10.0 mi SSW 6.9 mph - N/A   Mostly Cloudy
9:55 PM 48.2 °F - 30.2 °F 50% 29.94 in 10.0 mi WSW 5.8 mph - N/A   Overcast
10:15 PM 48.2 °F - 30.2 °F 50% 29.94 in 10.0 mi SW 8.1 mph - N/A   Mostly Cloudy
10:35 PM 46.4 °F 42.9 °F 30.2 °F 53% 29.95 in 10.0 mi SW 6.9 mph - N/A   Scattered Clouds
10:55 PM 44.6 °F 39.2 °F 30.2 °F 57% 29.95 in 10.0 mi SSW 10.4 mph - N/A   Clear
11:15 PM 46.4 °F 42.9 °F 28.4 °F 50% 29.95 in 10.0 mi South 6.9 mph - N/A   Clear
11:35 PM 44.6 °F 40.2 °F 28.4 °F 53% 29.96 in 10.0 mi South 8.1 mph - N/A   Clear
11:55 PM 46.4 °F 44.3 °F 28.4 °F 50% 29.97 in 10.0 mi SSW 4.6 mph - N/A   Clear